This is the latest recevied weather packets stored in our database for station/object W0WFX-2. If no packets are shown the sender has not sent any weather packets the latest 10 day(s).
| Time | Temp. | Humidity | Pressure | Rain* | Wind** | Luminosity | Snow |
|---|---|---|---|---|---|---|---|
| 1788446710 | 30° C | 59% | 1014.2 hPa | 0 mm | - | 411 W/m² | - |
| 1788446406 | 29.44° C | 62% | 1014.1 hPa | 0 mm | - | 185 W/m² | - |
| 1788446103 | 28.89° C | 63% | 1014.2 hPa | 0 mm | - | 117 W/m² | - |
| 1788445798 | 28.89° C | 62% | 1014.3 hPa | 0 mm | - | 83 W/m² | - |
| 1788445493 | 28.89° C | 64% | 1014.4 hPa | 0 mm | - | 60 W/m² | - |
| 1788445189 | 28.33° C | 63% | 1014.4 hPa | 0 mm | - | 54 W/m² | - |
| 1788444885 | 28.33° C | 65% | 1014.4 hPa | 0 mm | - | 51 W/m² | - |
| 1788444580 | 28.33° C | 65% | 1014.3 hPa | 0 mm | - | 51 W/m² | - |
| 1788444275 | 27.78° C | 66% | 1014.2 hPa | 0 mm | - | 52 W/m² | - |
| 1788443970 | 27.22° C | 68% | 1014.4 hPa | 0 mm | - | 201 W/m² | - |
| 1788443667 | 27.22° C | 68% | 1014.3 hPa | 0 mm | - | 52 W/m² | - |
| 1788443361 | 26.67° C | 68% | 1014.4 hPa | 0 mm | - | 44 W/m² | - |
| 1788443060 | 26.67° C | 69% | 1014.3 hPa | 0 mm | - | 61 W/m² | - |
| 1788442758 | 26.67° C | 70% | 1014.3 hPa | 0 mm | - | 42 W/m² | - |
| 1788442454 | 26.11° C | 71% | 1014.2 hPa | 0 mm | - | 41 W/m² | - |
| 1788442149 | 26.11° C | 71% | 1014.5 hPa | 0 mm | - | 40 W/m² | - |
| 1788441845 | 25.56° C | 71% | 1014.3 hPa | 0 mm | - | 39 W/m² | - |
| 1788441545 | 25.56° C | 73% | 1014.4 hPa | 0 mm | - | 37 W/m² | - |
| 1788441244 | 25° C | 73% | 1014.4 hPa | 0 mm | - | 36 W/m² | - |
| 1788440944 | 25° C | 73% | 1014.2 hPa | 0 mm | - | 35 W/m² | - |
| 1788440639 | 25° C | 73% | 1014 hPa | 0 mm | - | 34 W/m² | - |
| 1788440338 | 25° C | 74% | 1014 hPa | 0 mm | - | 33 W/m² | - |
| 1788440033 | 24.44° C | 74% | 1014 hPa | 0 mm | - | 31 W/m² | - |
| 1788439732 | 24.44° C | 74% | 1014.1 hPa | 0 mm | - | 30 W/m² | - |
| 1788439427 | 24.44° C | 74% | 1014.1 hPa | 0 mm | - | 28 W/m² | - |
* Rain latest hour (hover to see other rain measurements)
** Current wind speed in m/s (hover to see current wind gust speed)